BREEZE-M R/B (44308 NORAD) Tracking and Keplerian Element Data

This shows tracking and keplerian element data for the satellite.

Feedback or suggestion? Click here.




ElementValue
Catalog44308
NameBREEZE-M R/B
Epoch Orbit23
Epoch Day163.3384314
Epoch Year2019
RAAN160.3911
Inclination18.0889
Eccentricity0.5385639
Argument of Perigee5.3425
Mean Anonmoly358.6434
Mean Motion2.0050665
Decay Rate2.04E-06
L11 44308U 19031B 19163.33843140 .00000204 00000-0 00000+0 0 9994
L22 44308 18.0889 160.3911 5385639 5.3425 358.6434 2.00506650 236

Live tracking and technical data element details for BREEZE-M R/B (NORAD 44308). BREEZE-M R/B can be tracked NOW for your location showing map with azimuth and elevation plus other details from your city location.

Track the satellite on the map from your city or location and see movement details for azimuth, elevation, latitude, longitude, range, height, and movement on the map or in text.







IsCatalogInMostPopularTable: catalog: 44308, numindb: 18
Update: records affected: 1



GetName: 44308 BREEZE-M R/B

Hit Count: updated at: Sun, 21 Jul 2019 21:27:35 GMT